Satellite-Ground Cal/Val Site Overpasses Predictions

Prediction of Satellite NPP Overpassing Cal/Val Site: Antarctic Dome C

Ground Cal/Val Site Location: Latitude: -75.10, Longitude: 123.35; Satellite-Ground Site NADIR distance within 100 km.

Table of predicted overpasses for the next 14.0 days since TLE Epoch: 4/30/2016
Interval Starting Time Ending Time Minimum Distance Time Minimum Distance (km)
1 05/02/2016 14:55:56 05/02/2016 14:56:24 05/02/2016 14:56:10 19.63
2 05/03/2016 14:37:14 05/03/2016 14:37:27 05/03/2016 14:37:21 87.30
3 05/04/2016 07:38:46 05/04/2016 07:39:13 05/04/2016 07:39:00 36.59
4 05/05/2016 07:20:00 05/05/2016 07:20:19 05/05/2016 07:20:10 73.53
5 05/07/2016 15:02:15 05/07/2016 15:02:39 05/07/2016 15:02:27 56.94
6 05/08/2016 14:43:25 05/08/2016 14:43:50 05/08/2016 14:43:38 52.17
7 05/09/2016 07:45:06 05/09/2016 07:45:26 05/09/2016 07:45:16 71.96
8 05/10/2016 07:26:13 05/10/2016 07:26:41 05/10/2016 07:26:27 35.90
9 05/12/2016 15:08:40 05/12/2016 15:08:49 05/12/2016 15:08:44 94.89


NCC Satellite Cal/Val Overpasses Prediction Service
